Zurück zum Katalog

DELTA 1 DEB

AktivPO
NORAD 21386·DEBRIS·🇺🇸 United States

Gestartet Jun 12, 1975 von Vandenberg Space Force Base

Loading…

Nächste Überflüge (nächste 24 Stunden)

TLE

AktuellSource: Space-Track

Epoche: Sep 14, 2026, 14:15 UTC

1 21386U 75052DG  26257.59380252  .00000231  00000-0  53726-3 0  9997
2 21386  99.5593 296.9861 0179211   1.8556 151.7054 13.29353098704714

Verfolge DELTA 1 DEB in Echtzeit mit AllMySat

Download on the App Store